Weather History for New Richmond, WI

Change the Weather History Date:

Thursday, June 6, 2013

  Actual Average (KMSP) Record (KMSP)
Temperature  
Mean Temperature 52 °F 66 °F  
Max Temperature 55 °F 76 °F 97 °F (2011)
Min Temperature 50 °F 56 °F 36 °F (1897)
Degree Days  
Heating Degree Days 12 3  
Month to date heating degree days 19  
Since 1 June heating degree days 19  
Since 1 July heating degree days 7555  
Cooling Degree Days 0 3  
Month to date cooling degree days 18  
Year to date cooling degree days 60  
Since 1 June cooling degree days 18  
Growing Degree Days 2 (Base 50)    
Moisture  
Dew Point 52 °F    
Average Humidity 94    
Maximum Humidity 100    
Minimum Humidity 85    
Precipitation  
Precipitation 0.00 in 0.13 in 1.59 in (1974)
Month to date precipitation 0.76  
Year to date precipitation 10.34  
Snow  
Snow 0.00 in 0.00 in 0.00 in ()
Month to date snowfall 0.0  
Since 1 June snowfall 0.0  
Since 1 July snowfall 54.4  
Snow Depth -    
Sea Level Pressure  
Sea Level Pressure 30.00 in    
Wind  
Wind Speed 7 mph (NE)    
Max Wind Speed 10 mph    
Max Gust Speed -    
Visibility 8 miles    
Events Rain    
T = Trace of Precipitation, MM = Missing Value Source: NWS Daily Summary

Daily Weather History Graph

Daily Weather History Graph

Search for Another Location

Airport:

Trip Planner

Search our weather history database for the weather conditions in past years. The results will help you decide how hot, cold, wet, or windy it might be!

Date:

Astronomy

Jun. 06, 2013 Rise Set
Actual Time 5:23 AM CDT 8:54 PM CDT
Civil Twilight 4:46 AM CDT 9:31 PM CDT
Nautical Twilight 3:58 AM CDT 10:20 PM CDT
Astronomical Twilight 2:54 AM CDT 11:23 PM CDT
Moon 4:10 AM CDT (6/6) 7:12 PM CDT (6/6)
Length of Visible Light 16h 44m
Length of Day
15h 30m
Waning Crescent, 3% of the Moon is Illuminated
Jun 6
Waning Crescent
Jun 8
New
Jun 16
First Quarter
Jun 23
Full
Jun 29
Last Quarter

Hourly Weather History & Observations

Time (CDT) Temp. Dew Point Humidity Pressure Visibility Wind Dir Wind Speed Gust Speed Precip Events Conditions
12:15 AM 53.6 °F 53.6 °F 100% 29.98 in 4.0 mi North 6.9 mph - N/A   Overcast
12:35 AM 53.2 °F 53.2 °F 100% 29.98 in 4.0 mi NNE 6.9 mph - N/A   Overcast
12:55 AM 53.1 °F 52.9 °F 99% 29.98 in 10.0 mi NNE 6.9 mph - N/A   Overcast
1:15 AM 52.9 °F 52.7 °F 99% 29.97 in 10.0 mi North 8.1 mph - N/A   Overcast
1:35 AM 52.9 °F 52.7 °F 99% 29.97 in 7.0 mi North 5.8 mph - N/A   Overcast
1:55 AM 52.9 °F 52.7 °F 99% 29.97 in 7.0 mi North 6.9 mph - N/A   Overcast
2:15 AM 52.7 °F 52.5 °F 99% 29.97 in 7.0 mi NE 8.1 mph - N/A Rain Rain
2:35 AM 52.3 °F 52.2 °F 99% 29.97 in 4.0 mi NE 5.8 mph - N/A   Overcast
2:55 AM 52.0 °F 51.8 °F 99% 29.97 in 4.0 mi ENE 5.8 mph - N/A   Overcast
3:15 AM 51.8 °F 51.8 °F 100% 29.97 in 5.0 mi ENE 4.6 mph - N/A   Overcast
3:35 AM 51.8 °F 51.6 °F 99% 29.97 in 5.0 mi NE 4.6 mph - N/A   Overcast
3:55 AM 51.8 °F 51.3 °F 98% 29.97 in 5.0 mi ENE 4.6 mph - N/A   Overcast
4:15 AM 51.8 °F 51.3 °F 98% 29.97 in 5.0 mi ENE 5.8 mph - N/A   Overcast
4:35 AM 51.8 °F 51.3 °F 98% 29.96 in 4.0 mi NE 6.9 mph - N/A   Overcast
4:55 AM 51.8 °F 51.3 °F 98% 29.97 in 5.0 mi NE 6.9 mph - N/A   Overcast
5:15 AM 51.8 °F 51.3 °F 98% 29.97 in 5.0 mi NE 6.9 mph - N/A   Overcast
5:35 AM 51.3 °F 50.9 °F 99% 29.97 in 5.0 mi NE 4.6 mph - N/A   Overcast
5:55 AM 51.1 °F 50.9 °F 99% 29.97 in 4.0 mi ENE 6.9 mph - N/A   Light Drizzle
6:15 AM 51.1 °F 50.9 °F 99% 29.97 in 5.0 mi ENE 8.1 mph - N/A   Overcast
6:35 AM 51.1 °F 50.9 °F 99% 29.98 in 2.5 mi NE 6.9 mph - N/A   Overcast
6:55 AM 50.9 °F 50.9 °F 100% 29.98 in 4.0 mi ENE 6.9 mph - N/A   Overcast
7:15 AM 50.9 °F 50.9 °F 100% 29.98 in 3.0 mi ENE 5.8 mph - N/A   Overcast
7:35 AM 51.1 °F 50.9 °F 99% 29.98 in 4.0 mi NE 6.9 mph - N/A   Overcast
7:55 AM 51.3 °F 50.9 °F 99% 29.98 in 4.0 mi NE 8.1 mph - N/A   Overcast
8:15 AM 51.4 °F 51.1 °F 99% 29.98 in 5.0 mi NE 6.9 mph - N/A   Overcast
8:35 AM 51.8 °F 50.9 °F 97% 29.98 in 7.0 mi NE 5.8 mph - N/A   Overcast
8:55 AM 51.8 °F 50.9 °F 97% 29.99 in 10.0 mi NE 10.4 mph - N/A   Overcast
9:15 AM 52.2 °F 50.7 °F 95% 29.99 in 10.0 mi NE 9.2 mph - N/A   Overcast
9:35 AM 52.2 °F 50.9 °F 95% 30.00 in 10.0 mi NE 6.9 mph - N/A   Overcast
9:55 AM 52.7 °F 50.9 °F 94% 30.00 in 10.0 mi ENE 6.9 mph - N/A   Overcast
10:15 AM 52.7 °F 50.7 °F 93% 30.00 in 10.0 mi ENE 8.1 mph - N/A   Overcast
10:35 AM 52.7 °F 50.7 °F 93% 30.00 in 10.0 mi ENE 6.9 mph - N/A   Overcast
10:55 AM 52.9 °F 50.9 °F 93% 30.00 in 10.0 mi ENE 6.9 mph - N/A   Overcast
11:15 AM 53.1 °F 50.9 °F 92% 30.00 in 10.0 mi NE 8.1 mph - N/A   Overcast
11:35 AM 53.4 °F 51.1 °F 92% 30.00 in 10.0 mi ENE 8.1 mph - N/A   Overcast
11:55 AM 54.0 °F 51.3 °F 91% 30.00 in 10.0 mi NE 8.1 mph - N/A   Overcast
12:15 PM 54.5 °F 51.3 °F 89% 30.01 in 10.0 mi ENE 5.8 mph - N/A   Overcast
12:35 PM 54.9 °F 51.6 °F 89% 30.01 in 10.0 mi NE 9.2 mph - N/A   Overcast
12:55 PM 54.9 °F 51.4 °F 88% 30.00 in 10.0 mi NE 6.9 mph - N/A   Overcast
1:15 PM 55.0 °F 51.6 °F 88% 30.00 in 10.0 mi NE 8.1 mph - N/A   Overcast
1:35 PM 55.4 °F 51.6 °F 87% 30.00 in 10.0 mi NNE 8.1 mph - N/A   Overcast
1:55 PM 55.8 °F 51.8 °F 87% 30.00 in 10.0 mi North 9.2 mph - N/A   Overcast
2:15 PM 55.6 °F 51.8 °F 87% 30.01 in 10.0 mi NE 8.1 mph - N/A   Overcast
2:35 PM 55.6 °F 51.3 °F 85% 30.01 in 10.0 mi NE 8.1 mph - N/A   Overcast
2:55 PM 55.4 °F 51.3 °F 86% 30.01 in 10.0 mi ENE 5.8 mph - N/A   Overcast
3:15 PM 55.4 °F 51.4 °F 87% 30.01 in 10.0 mi East 4.6 mph - N/A   Overcast
3:35 PM 55.0 °F 51.4 °F 88% 30.01 in 10.0 mi NE 8.1 mph - N/A   Overcast
3:55 PM 55.6 °F 51.6 °F 87% 30.01 in 10.0 mi NNE 5.8 mph - N/A   Overcast
4:15 PM 55.6 °F 51.4 °F 86% 30.01 in 10.0 mi ENE 9.2 mph - N/A   Overcast
4:35 PM 54.5 °F 51.1 °F 88% 30.01 in 10.0 mi ENE 5.8 mph - N/A   Overcast
4:55 PM 55.0 °F 51.3 °F 87% 30.01 in 10.0 mi ENE 8.1 mph - N/A   Overcast
5:15 PM 54.9 °F 50.9 °F 86% 30.01 in 10.0 mi NE 8.1 mph - N/A   Overcast
5:35 PM 54.7 °F 50.9 °F 87% 30.02 in 10.0 mi NE 5.8 mph - N/A   Overcast
5:55 PM 55.4 °F 51.1 °F 85% 30.02 in 10.0 mi NE 5.8 mph - N/A   Overcast
6:15 PM 55.6 °F 51.1 °F 85% 30.02 in 10.0 mi NE 8.1 mph - N/A   Overcast
6:35 PM 55.6 °F 51.1 °F 85% 30.02 in 10.0 mi NNE 6.9 mph - N/A   Overcast
6:55 PM 54.9 °F 50.9 °F 86% 30.02 in 10.0 mi NNE 6.9 mph - N/A   Overcast
7:15 PM 54.7 °F 51.1 °F 88% 30.02 in 10.0 mi NNE 5.8 mph - N/A   Overcast
7:35 PM 54.5 °F 51.3 °F 89% 30.02 in 10.0 mi NNE 8.1 mph - N/A   Overcast
7:55 PM 54.1 °F 50.9 °F 89% 30.02 in 10.0 mi NNE 6.9 mph - N/A   Overcast
8:15 PM 54.0 °F 51.3 °F 91% 30.02 in 10.0 mi NNE 8.1 mph - N/A   Overcast
8:35 PM 53.6 °F 51.4 °F 92% 30.02 in 10.0 mi NE 6.9 mph - N/A   Overcast
8:55 PM 52.9 °F 51.8 °F 96% 30.02 in 10.0 mi NNE 4.6 mph - N/A   Overcast
9:15 PM 52.7 °F 52.0 °F 97% 30.02 in 10.0 mi NNE 4.6 mph - N/A   Overcast
9:35 PM 52.7 °F 52.2 °F 98% 30.03 in 10.0 mi North 4.6 mph - N/A   Overcast
9:55 PM 52.7 °F 52.3 °F 99% 30.04 in 10.0 mi North 4.6 mph - N/A   Overcast
10:15 PM 52.7 °F 52.3 °F 99% 30.04 in 10.0 mi North 3.5 mph - N/A   Overcast
10:35 PM 52.7 °F 52.3 °F 99% 30.04 in 10.0 mi North 3.5 mph - N/A   Overcast
10:55 PM 52.7 °F 52.3 °F 99% 30.04 in 7.0 mi North 4.6 mph - N/A   Overcast
11:15 PM 52.7 °F 52.3 °F 99% 30.04 in 5.0 mi NNE 5.8 mph - N/A   Overcast
11:35 PM 52.2 °F 52.2 °F 100% 30.04 in 3.0 mi NNE 3.5 mph - N/A   Overcast
11:55 PM 52.3 °F 52.3 °F 100% 30.04 in 7.0 mi Calm Calm - N/A   Overcast